Time,TemperatureF,DewpointF,PressureIn,WindDirection,WindDirectionDegrees,WindSpeedMPH,WindSpeedGustMPH,Humidity,HourlyPrecipIn,Conditions,Clouds,dailyrainin,SoftwareType,DateUTC
2013-05-06 00:01:00,50.9,45.6,29.98,SW,221,3.6,4.0,82,0.00,,,0.00,VWS V13.01,2013-05-06 05:01:00,
2013-05-06 00:06:00,50.7,45.4,29.98,SW,235,3.1,3.1,82,0.00,,,0.00,VWS V13.01,2013-05-06 05:06:00,
2013-05-06 00:11:00,50.5,45.2,29.98,SSW,201,3.1,5.8,82,0.00,,,0.00,VWS V13.01,2013-05-06 05:11:00,
2013-05-06 00:16:00,50.5,45.6,29.98,SW,232,3.1,5.4,83,0.00,,,0.00,VWS V13.01,2013-05-06 05:16:00,
2013-05-06 00:21:00,50.3,45.4,29.98,WSW,245,3.1,3.1,83,0.00,,,0.00,VWS V13.01,2013-05-06 05:21:00,
2013-05-06 00:26:00,50.2,45.2,29.98,SSW,212,2.2,2.7,83,0.00,,,0.00,VWS V13.01,2013-05-06 05:26:00,
2013-05-06 00:31:00,50.0,45.3,29.98,West,261,3.6,3.6,84,0.00,,,0.00,VWS V13.01,2013-05-06 05:31:00,
2013-05-06 00:36:00,50.0,45.3,29.98,WSW,246,3.6,3.6,84,0.00,,,0.00,VWS V13.01,2013-05-06 05:36:00,
2013-05-06 00:41:00,49.8,45.2,29.98,SW,234,3.1,3.1,84,0.00,,,0.00,VWS V13.01,2013-05-06 05:41:00,
2013-05-06 00:45:00,49.6,45.3,29.98,SSW,201,4.0,4.0,85,0.00,,,0.00,VWS V13.01,2013-05-06 05:45:00,
2013-05-06 00:50:00,49.6,45.6,29.98,South,176,3.1,3.1,86,0.00,,,0.00,VWS V13.01,2013-05-06 05:50:00,
2013-05-06 00:55:00,49.4,45.4,29.98,SW,233,3.1,3.6,86,0.00,,,0.00,VWS V13.01,2013-05-06 05:55:00,
2013-05-06 01:00:00,49.4,45.4,29.98,SSW,206,3.6,3.6,86,0.00,,,0.00,VWS V13.01,2013-05-06 06:00:00,
2013-05-06 01:05:00,49.4,45.7,29.98,SW,217,4.0,4.0,87,0.00,,,0.00,VWS V13.01,2013-05-06 06:05:00,
2013-05-06 01:10:00,49.4,45.7,29.98,WSW,240,3.6,3.6,87,0.00,,,0.00,VWS V13.01,2013-05-06 06:10:00,
2013-05-06 01:15:00,49.4,45.7,29.98,SW,221,3.6,6.3,87,0.00,,,0.00,VWS V13.01,2013-05-06 06:15:00,
2013-05-06 01:20:00,49.4,45.4,29.98,SW,218,4.0,4.0,86,0.00,,,0.00,VWS V13.01,2013-05-06 06:20:00,
2013-05-06 01:25:00,49.3,45.3,29.98,SW,226,2.7,3.1,86,0.00,,,0.00,VWS V13.01,2013-05-06 06:25:00,
2013-05-06 01:30:00,49.3,45.6,29.98,WSW,248,5.4,5.4,87,0.00,,,0.00,VWS V13.01,2013-05-06 06:30:00,
2013-05-06 01:35:00,49.1,45.4,29.98,WSW,243,4.0,4.5,87,0.00,,,0.00,VWS V13.01,2013-05-06 06:35:00,
2013-05-06 01:40:00,48.9,45.2,29.98,WSW,251,4.0,4.0,87,0.00,,,0.00,VWS V13.01,2013-05-06 06:40:00,
2013-05-06 01:45:00,48.9,45.5,29.95,WSW,258,5.4,6.3,88,0.00,,,0.00,VWS V13.01,2013-05-06 06:45:00,
2013-05-06 01:50:00,48.9,45.5,29.95,WSW,258,4.0,4.0,88,0.00,,,0.00,VWS V13.01,2013-05-06 06:50:00,
2013-05-06 01:55:00,48.9,45.5,29.95,SW,232,4.9,4.9,88,0.00,,,0.00,VWS V13.01,2013-05-06 06:55:00,
2013-05-06 02:00:00,48.9,45.5,29.95,WSW,241,5.8,5.8,88,0.00,,,0.00,VWS V13.01,2013-05-06 07:00:00,
2013-05-06 02:05:00,48.9,45.5,29.95,West,269,4.0,6.3,88,0.00,,,0.00,VWS V13.01,2013-05-06 07:05:00,
2013-05-06 02:10:00,48.9,45.5,29.95,WSW,242,4.9,5.4,88,0.00,,,0.00,VWS V13.01,2013-05-06 07:10:00,
2013-05-06 02:15:00,48.7,45.3,29.95,SW,231,2.7,2.7,88,0.00,,,0.00,VWS V13.01,2013-05-06 07:15:00,
2013-05-06 02:20:00,48.5,45.2,29.95,SSW,210,0.0,0.0,88,0.00,,,0.00,VWS V13.01,2013-05-06 07:20:00,
2013-05-06 02:25:00,48.5,45.2,29.95,SSE,162,2.7,2.7,88,0.00,,,0.00,VWS V13.01,2013-05-06 07:25:00,
2013-05-06 02:30:00,48.5,45.2,29.95,SSW,194,3.6,3.6,88,0.00,,,0.00,VWS V13.01,2013-05-06 07:30:00,
2013-05-06 02:35:00,48.5,45.2,29.95,SSW,207,2.7,3.6,88,0.00,,,0.00,VWS V13.01,2013-05-06 07:35:00,
2013-05-06 02:40:00,48.4,45.0,29.95,SW,219,2.2,2.2,88,0.00,,,0.00,VWS V13.01,2013-05-06 07:40:00,
2013-05-06 02:45:00,48.2,45.1,29.95,SSE,165,3.1,4.0,89,0.00,,,0.00,VWS V13.01,2013-05-06 07:45:00,
2013-05-06 02:50:00,48.0,44.9,29.95,South,184,2.2,2.7,89,0.00,,,0.00,VWS V13.01,2013-05-06 07:50:00,
2013-05-06 02:55:00,47.8,45.0,29.95,South,171,3.1,3.1,90,0.00,,,0.00,VWS V13.01,2013-05-06 07:55:00,
2013-05-06 03:00:00,47.8,45.3,29.95,South,181,4.0,4.0,91,0.00,,,0.00,VWS V13.01,2013-05-06 08:00:00,
2013-05-06 03:05:00,47.8,45.3,29.95,SSE,157,2.2,2.7,91,0.00,,,0.00,VWS V13.01,2013-05-06 08:05:00,
2013-05-06 03:10:00,47.8,45.3,29.95,SW,227,0.0,0.0,91,0.00,,,0.00,VWS V13.01,2013-05-06 08:10:00,
2013-05-06 03:15:00,47.8,45.3,29.95,SW,236,0.0,0.0,91,0.00,,,0.00,VWS V13.01,2013-05-06 08:15:00,
2013-05-06 03:20:00,47.6,45.4,29.95,WSW,239,3.1,3.6,92,0.00,,,0.00,VWS V13.01,2013-05-06 08:20:00,
2013-05-06 03:25:00,47.6,45.4,29.95,SW,221,3.6,3.6,92,0.00,,,0.00,VWS V13.01,2013-05-06 08:25:00,
2013-05-06 03:30:00,47.8,45.6,29.95,SW,220,2.7,3.6,92,0.00,,,0.00,VWS V13.01,2013-05-06 08:30:00,
2013-05-06 03:35:00,47.8,45.9,29.95,SW,218,2.7,3.6,93,0.00,,,0.00,VWS V13.01,2013-05-06 08:35:00,
2013-05-06 03:40:00,48.0,46.1,29.95,SSW,211,3.6,4.0,93,0.00,,,0.00,VWS V13.01,2013-05-06 08:40:00,
2013-05-06 03:45:00,48.2,46.3,29.95,SW,236,3.6,6.3,93,0.00,,,0.00,VWS V13.01,2013-05-06 08:45:00,
2013-05-06 03:50:00,48.2,46.3,29.95,WSW,245,6.3,6.3,93,0.00,,,0.00,VWS V13.01,2013-05-06 08:50:00,
2013-05-06 03:55:00,48.4,46.2,29.95,WSW,253,4.0,5.4,92,0.00,,,0.00,VWS V13.01,2013-05-06 08:55:00,
2013-05-06 04:00:00,48.5,46.0,29.95,SSW,210,3.1,3.1,91,0.00,,,0.00,VWS V13.01,2013-05-06 09:00:00,
2013-05-06 04:05:00,48.7,46.2,29.95,SSW,208,3.1,3.1,91,0.00,,,0.00,VWS V13.01,2013-05-06 09:05:00,
2013-05-06 04:10:00,48.9,46.4,29.95,SW,231,3.1,3.6,91,0.00,,,0.00,VWS V13.01,2013-05-06 09:10:00,
2013-05-06 04:15:00,49.1,46.3,29.95,SW,231,3.6,4.0,90,0.00,,,0.00,VWS V13.01,2013-05-06 09:15:00,
2013-05-06 04:20:00,49.3,46.2,29.95,SW,235,4.0,5.4,89,0.00,,,0.00,VWS V13.01,2013-05-06 09:20:00,
2013-05-06 04:25:00,49.4,45.7,29.95,SW,229,3.1,6.3,87,0.00,,,0.00,VWS V13.01,2013-05-06 09:25:00,
2013-05-06 04:30:00,49.4,45.4,29.95,WSW,257,4.0,4.0,86,0.00,,,0.00,VWS V13.01,2013-05-06 09:30:00,
2013-05-06 04:35:00,49.6,45.6,29.95,WSW,239,3.6,5.4,86,0.00,,,0.00,VWS V13.01,2013-05-06 09:35:00,
2013-05-06 04:40:00,49.6,45.3,29.95,SW,235,3.1,3.1,85,0.00,,,0.00,VWS V13.01,2013-05-06 09:40:00,
2013-05-06 04:45:00,49.4,45.1,29.95,South,188,2.7,3.1,85,0.00,,,0.00,VWS V13.01,2013-05-06 09:45:00,
2013-05-06 04:50:00,49.1,45.1,29.95,SSE,166,3.1,4.9,86,0.00,,,0.00,VWS V13.01,2013-05-06 09:50:00,
2013-05-06 04:55:00,48.5,44.8,29.95,SSE,164,3.6,3.6,87,0.00,,,0.00,VWS V13.01,2013-05-06 09:55:00,
2013-05-06 05:00:00,48.2,45.1,29.95,South,182,3.1,4.0,89,0.00,,,0.00,VWS V13.01,2013-05-06 10:00:00,
2013-05-06 05:05:00,48.0,45.2,29.95,SSE,168,2.2,3.1,90,0.00,,,0.00,VWS V13.01,2013-05-06 10:05:00,
2013-05-06 05:10:00,47.8,45.3,29.95,South,184,0.0,0.0,91,0.00,,,0.00,VWS V13.01,2013-05-06 10:10:00,
2013-05-06 05:15:00,47.8,45.3,29.95,South,184,0.0,0.0,91,0.00,,,0.00,VWS V13.01,2013-05-06 10:15:00,
2013-05-06 05:20:00,47.8,45.3,29.95,South,184,0.0,0.0,91,0.00,,,0.00,VWS V13.01,2013-05-06 10:20:00,
2013-05-06 05:25:00,47.8,45.6,29.95,South,177,0.0,0.0,92,0.00,,,0.00,VWS V13.01,2013-05-06 10:25:00,
2013-05-06 05:30:00,48.0,45.8,29.95,South,177,0.0,0.0,92,0.00,,,0.00,VWS V13.01,2013-05-06 10:30:00,
2013-05-06 05:35:00,48.2,46.0,29.95,SSW,196,0.0,2.2,92,0.00,,,0.00,VWS V13.01,2013-05-06 10:35:00,
2013-05-06 05:40:00,48.2,46.0,29.95,SW,230,0.0,0.0,92,0.00,,,0.00,VWS V13.01,2013-05-06 10:40:00,
2013-05-06 05:45:00,48.4,46.4,29.95,WSW,251,3.6,3.6,93,0.00,,,0.00,VWS V13.01,2013-05-06 10:45:00,
2013-05-06 05:50:00,48.5,46.6,29.95,WSW,254,4.9,4.9,93,0.00,,,0.00,VWS V13.01,2013-05-06 10:50:00,
2013-05-06 05:55:00,48.5,46.6,29.95,WSW,237,2.7,3.6,93,0.00,,,0.00,VWS V13.01,2013-05-06 10:55:00,
2013-05-06 06:00:00,48.7,46.8,29.95,SW,220,2.7,4.9,93,0.00,,,0.00,VWS V13.01,2013-05-06 11:00:00,
2013-05-06 06:05:00,48.7,46.5,29.95,SW,230,3.1,3.6,92,0.00,,,0.00,VWS V13.01,2013-05-06 11:05:00,
2013-05-06 06:10:00,48.7,46.5,29.95,SSW,211,2.7,3.1,92,0.00,,,0.00,VWS V13.01,2013-05-06 11:10:00,
2013-05-06 06:15:00,48.9,46.7,29.98,WSW,241,3.1,3.1,92,0.00,,,0.00,VWS V13.01,2013-05-06 11:15:00,
2013-05-06 06:20:00,48.9,46.4,29.98,SW,220,2.7,3.1,91,0.00,,,0.00,VWS V13.01,2013-05-06 11:20:00,
2013-05-06 06:25:00,48.7,46.2,29.98,WSW,238,3.1,3.1,91,0.00,,,0.00,VWS V13.01,2013-05-06 11:25:00,
2013-05-06 06:30:00,48.7,46.2,29.98,SW,229,2.7,2.7,91,0.00,,,0.00,VWS V13.01,2013-05-06 11:30:00,
2013-05-06 06:35:00,48.7,46.2,29.98,South,173,2.7,2.7,91,0.00,,,0.00,VWS V13.01,2013-05-06 11:35:00,
2013-05-06 06:40:00,48.5,46.0,29.98,SSW,205,3.6,3.6,91,0.00,,,0.00,VWS V13.01,2013-05-06 11:40:00,
2013-05-06 06:45:00,48.4,45.9,29.98,South,170,2.7,2.7,91,0.00,,,0.00,VWS V13.01,2013-05-06 11:45:00,
2013-05-06 06:50:00,48.2,45.7,29.98,SW,222,0.0,0.0,91,0.00,,,0.00,VWS V13.01,2013-05-06 11:50:00,
2013-05-06 06:55:00,48.2,45.7,29.98,ESE,123,0.0,0.0,91,0.00,,,0.00,VWS V13.01,2013-05-06 11:55:00,
2013-05-06 06:59:00,48.0,45.5,29.98,SSE,165,4.0,4.0,91,0.00,,,0.00,VWS V13.01,2013-05-06 11:59:00,
2013-05-06 07:04:00,47.6,45.4,29.98,South,179,2.7,3.6,92,0.00,,,0.00,VWS V13.01,2013-05-06 12:04:00,
2013-05-06 07:09:00,47.5,45.3,29.98,South,191,2.2,2.2,92,0.00,,,0.00,VWS V13.01,2013-05-06 12:09:00,
2013-05-06 07:14:00,47.5,45.5,29.98,South,181,3.1,3.1,93,0.00,,,0.00,VWS V13.01,2013-05-06 12:14:00,
2013-05-06 07:19:00,47.6,46.0,29.98,South,170,3.6,3.6,94,0.00,,,0.00,VWS V13.01,2013-05-06 12:19:00,
2013-05-06 07:24:00,47.8,46.2,29.98,South,190,2.2,2.2,94,0.00,,,0.00,VWS V13.01,2013-05-06 12:24:00,
2013-05-06 07:29:00,48.2,46.8,29.98,SW,235,3.6,4.0,95,0.00,,,0.00,VWS V13.01,2013-05-06 12:29:00,
2013-05-06 07:34:00,48.5,47.2,29.98,SW,222,5.8,5.8,95,0.00,,,0.00,VWS V13.01,2013-05-06 12:34:00,
2013-05-06 07:39:00,48.7,46.2,29.98,SW,231,5.8,7.2,91,0.00,,,0.00,VWS V13.01,2013-05-06 12:39:00,
2013-05-06 07:44:00,48.9,46.4,29.98,SW,231,4.0,4.0,91,0.00,,,0.00,VWS V13.01,2013-05-06 12:44:00,
2013-05-06 07:49:00,48.9,46.1,29.98,SW,230,2.7,2.7,90,0.00,,,0.00,VWS V13.01,2013-05-06 12:49:00,
2013-05-06 07:54:00,49.1,46.6,29.98,SW,231,4.0,4.9,91,0.00,,,0.00,VWS V13.01,2013-05-06 12:54:00,
2013-05-06 07:59:00,49.3,46.8,29.98,WSW,255,3.6,3.6,91,0.00,,,0.00,VWS V13.01,2013-05-06 12:59:00,
2013-05-06 08:04:00,49.6,47.1,29.98,WSW,258,5.4,5.4,91,0.00,,,0.00,VWS V13.01,2013-05-06 13:04:00,
2013-05-06 08:09:00,49.6,46.2,29.98,SW,229,4.9,4.9,88,0.00,,,0.00,VWS V13.01,2013-05-06 13:09:00,
2013-05-06 08:14:00,49.8,46.1,29.98,SW,235,5.8,5.8,87,0.00,,,0.00,VWS V13.01,2013-05-06 13:14:00,
2013-05-06 08:19:00,50.2,46.5,29.98,SW,232,5.4,5.4,87,0.00,,,0.00,VWS V13.01,2013-05-06 13:19:00,
2013-05-06 08:24:00,50.7,47.0,29.98,WSW,253,4.0,4.0,87,0.00,,,0.00,VWS V13.01,2013-05-06 13:24:00,
2013-05-06 08:29:00,51.4,47.4,30.01,WSW,238,3.6,6.3,86,0.00,,,0.00,VWS V13.01,2013-05-06 13:29:00,
2013-05-06 08:34:00,52.0,47.0,30.01,WSW,242,5.4,7.6,83,0.00,,,0.00,VWS V13.01,2013-05-06 13:34:00,
2013-05-06 08:39:00,52.3,47.0,30.01,West,267,4.9,4.9,82,0.00,,,0.00,VWS V13.01,2013-05-06 13:39:00,
2013-05-06 08:44:00,52.7,46.4,30.01,West,263,3.6,5.8,79,0.00,,,0.00,VWS V13.01,2013-05-06 13:44:00,
2013-05-06 08:49:00,53.2,47.2,30.01,SW,225,4.0,4.9,80,0.00,,,0.00,VWS V13.01,2013-05-06 13:49:00,
2013-05-06 08:54:00,53.6,45.9,30.01,SW,227,4.0,5.8,75,0.00,,,0.00,VWS V13.01,2013-05-06 13:54:00,
2013-05-06 08:59:00,53.9,46.9,30.01,WSW,240,3.6,3.6,77,0.00,,,0.00,VWS V13.01,2013-05-06 13:59:00,
2013-05-06 09:04:00,54.1,46.4,30.01,SW,222,3.1,4.5,75,0.00,,,0.00,VWS V13.01,2013-05-06 14:04:00,
2013-05-06 09:09:00,54.3,46.6,30.01,SSW,204,4.0,4.9,75,0.00,,,0.00,VWS V13.01,2013-05-06 14:09:00,
2013-05-06 09:14:00,54.5,47.1,30.01,SW,221,4.0,4.0,76,0.00,,,0.00,VWS V13.01,2013-05-06 14:14:00,
2013-05-06 09:19:00,54.5,46.7,30.01,SSW,208,3.1,3.6,75,0.00,,,0.00,VWS V13.01,2013-05-06 14:19:00,
2013-05-06 09:24:00,54.5,47.1,30.01,SSE,160,5.8,5.8,76,0.00,,,0.00,VWS V13.01,2013-05-06 14:24:00,
2013-05-06 09:29:00,54.5,47.1,30.01,SSE,168,5.4,6.3,76,0.00,,,0.00,VWS V13.01,2013-05-06 14:29:00,
2013-05-06 09:34:00,54.5,46.7,30.01,SSE,159,4.5,6.3,75,0.00,,,0.00,VWS V13.01,2013-05-06 14:34:00,
2013-05-06 09:39:00,54.7,47.3,30.01,SSW,194,3.1,5.4,76,0.00,,,0.00,VWS V13.01,2013-05-06 14:39:00,
2013-05-06 09:44:00,54.8,47.8,30.01,WSW,240,3.1,4.0,77,0.00,,,0.00,VWS V13.01,2013-05-06 14:44:00,
2013-05-06 09:49:00,55.2,47.8,30.01,SW,214,4.0,4.0,76,0.00,,,0.00,VWS V13.01,2013-05-06 14:49:00,
2013-05-06 09:54:00,55.6,47.1,30.01,SW,226,3.6,4.9,73,0.00,,,0.00,VWS V13.01,2013-05-06 14:54:00,
2013-05-06 09:59:00,55.9,47.8,30.01,WSW,237,7.6,8.1,74,0.00,,,0.00,VWS V13.01,2013-05-06 14:59:00,
2013-05-06 10:04:00,55.9,46.7,30.01,SSW,200,6.3,8.1,71,0.00,,,0.00,VWS V13.01,2013-05-06 15:04:00,
2013-05-06 10:09:00,56.1,47.2,30.01,SW,227,5.4,6.3,72,0.00,,,0.00,VWS V13.01,2013-05-06 15:09:00,
2013-05-06 10:14:00,56.3,47.0,30.01,SSW,209,5.4,6.3,71,0.00,,,0.00,VWS V13.01,2013-05-06 15:14:00,
2013-05-06 10:19:00,56.5,47.2,30.01,WSW,253,5.8,8.1,71,0.00,,,0.00,VWS V13.01,2013-05-06 15:19:00,
2013-05-06 10:24:00,56.6,46.6,30.01,SW,234,5.8,10.1,69,0.00,,,0.00,VWS V13.01,2013-05-06 15:24:00,
2013-05-06 10:29:00,57.0,47.7,30.01,WSW,250,6.3,6.3,71,0.00,,,0.00,VWS V13.01,2013-05-06 15:29:00,
2013-05-06 10:34:00,57.7,48.4,30.01,SW,227,5.8,5.8,71,0.00,,,0.00,VWS V13.01,2013-05-06 15:34:00,
2013-05-06 10:39:00,57.9,47.0,30.01,SW,222,5.8,5.8,67,0.00,,,0.00,VWS V13.01,2013-05-06 15:39:00,
2013-05-06 10:44:00,58.6,47.7,30.01,WSW,241,10.1,10.1,67,0.00,,,0.00,VWS V13.01,2013-05-06 15:44:00,
2013-05-06 10:49:00,59.2,47.4,30.01,South,188,5.8,11.0,65,0.00,,,0.00,VWS V13.01,2013-05-06 15:49:00,
2013-05-06 10:54:00,59.7,48.3,30.01,SSW,207,8.1,8.3,66,0.00,,,0.00,VWS V13.01,2013-05-06 15:54:00,
2013-05-06 10:59:00,59.9,48.1,30.01,SW,217,6.3,12.8,65,0.00,,,0.00,VWS V13.01,2013-05-06 15:59:00,
2013-05-06 11:04:00,59.3,47.6,30.01,SSW,201,8.3,10.5,65,0.00,,,0.00,VWS V13.01,2013-05-06 16:04:00,
2013-05-06 11:09:00,59.0,47.2,30.01,WSW,243,13.2,13.2,65,0.00,,,0.00,VWS V13.01,2013-05-06 16:09:00,
2013-05-06 11:14:00,59.0,47.7,30.01,SW,236,8.3,9.2,66,0.00,,,0.00,VWS V13.01,2013-05-06 16:14:00,
2013-05-06 11:19:00,59.3,48.0,30.01,WSW,256,8.1,10.5,66,0.00,,,0.00,VWS V13.01,2013-05-06 16:19:00,
2013-05-06 11:24:00,59.9,48.9,30.01,SW,218,4.0,5.4,67,0.00,,,0.00,VWS V13.01,2013-05-06 16:24:00,
2013-05-06 11:29:00,59.9,47.7,30.01,West,272,5.8,7.2,64,0.00,,,0.00,VWS V13.01,2013-05-06 16:29:00,
2013-05-06 11:34:00,59.7,47.9,30.01,WSW,240,11.0,11.0,65,0.00,,,0.00,VWS V13.01,2013-05-06 16:34:00,
2013-05-06 11:39:00,59.9,48.5,30.01,WSW,238,8.1,8.1,66,0.00,,,0.00,VWS V13.01,2013-05-06 16:39:00,
2013-05-06 11:44:00,60.4,48.2,30.01,WSW,242,4.0,5.4,64,0.00,,,0.00,VWS V13.01,2013-05-06 16:44:00,
2013-05-06 11:49:00,61.0,48.7,30.01,WSW,240,8.1,8.1,64,0.00,,,0.00,VWS V13.01,2013-05-06 16:49:00,
2013-05-06 11:54:00,61.5,48.4,30.01,West,281,6.3,6.3,62,0.00,,,0.00,VWS V13.01,2013-05-06 16:54:00,
2013-05-06 11:59:00,61.9,48.7,30.01,WSW,256,8.1,8.1,62,0.00,,,0.00,VWS V13.01,2013-05-06 16:59:00,
2013-05-06 12:04:00,62.2,47.7,30.01,West,275,6.3,6.3,59,0.00,,,0.00,VWS V13.01,2013-05-06 17:04:00,
2013-05-06 12:09:00,62.4,48.3,30.01,SW,225,8.1,8.1,60,0.00,,,0.00,VWS V13.01,2013-05-06 17:09:00,
2013-05-06 12:14:00,62.8,47.3,30.01,WSW,248,7.2,7.2,57,0.00,,,0.00,VWS V13.01,2013-05-06 17:14:00,
2013-05-06 12:19:00,63.5,47.5,30.01,WNW,288,5.4,5.4,56,0.00,,,0.00,VWS V13.01,2013-05-06 17:19:00,
2013-05-06 12:24:00,64.0,47.5,30.01,NW,306,8.7,8.7,55,0.00,,,0.00,VWS V13.01,2013-05-06 17:24:00,
2013-05-06 12:29:00,64.2,47.7,30.01,WSW,258,5.4,8.1,55,0.00,,,0.00,VWS V13.01,2013-05-06 17:29:00,
2013-05-06 12:33:00,63.8,47.4,30.01,NNE,13,4.0,4.9,55,0.00,,,0.00,VWS V13.01,2013-05-06 17:33:00,
2013-05-06 12:38:00,63.5,47.5,30.01,West,259,6.3,6.3,56,0.00,,,0.00,VWS V13.01,2013-05-06 17:38:00,
2013-05-06 12:43:00,63.3,46.9,30.01,WNW,296,6.3,6.3,55,0.00,,,0.00,VWS V13.01,2013-05-06 17:43:00,
2013-05-06 12:48:00,63.3,46.9,30.01,WNW,297,5.8,5.8,55,0.00,,,0.00,VWS V13.01,2013-05-06 17:48:00,
2013-05-06 12:53:00,64.7,47.7,30.01,NW,308,6.3,6.3,54,0.00,,,0.00,VWS V13.01,2013-05-06 17:53:00,
2013-05-06 12:58:00,64.9,48.4,30.01,WSW,252,5.4,5.4,55,0.00,,,0.00,VWS V13.01,2013-05-06 17:58:00,
2013-05-06 13:03:00,64.4,47.9,30.01,NW,306,4.0,4.0,55,0.00,,,0.00,VWS V13.01,2013-05-06 18:03:00,
2013-05-06 13:08:00,64.9,49.3,30.01,WNW,293,3.1,4.0,57,0.00,,,0.00,VWS V13.01,2013-05-06 18:08:00,
2013-05-06 13:13:00,64.6,47.6,29.98,WNW,301,6.3,6.3,54,0.00,,,0.00,VWS V13.01,2013-05-06 18:13:00,
2013-05-06 13:18:00,64.6,47.6,29.98,West,279,8.1,8.1,54,0.00,,,0.00,VWS V13.01,2013-05-06 18:18:00,
2013-05-06 13:23:00,64.9,48.4,29.98,West,266,10.1,10.1,55,0.00,,,0.00,VWS V13.01,2013-05-06 18:23:00,
2013-05-06 13:28:00,64.7,48.7,29.98,SW,236,6.3,6.3,56,0.00,,,0.00,VWS V13.01,2013-05-06 18:28:00,
2013-05-06 13:33:00,65.5,48.4,29.98,SW,231,5.8,5.8,54,0.00,,,0.00,VWS V13.01,2013-05-06 18:33:00,
2013-05-06 13:38:00,65.5,47.9,29.98,NW,304,10.5,11.0,53,0.00,,,0.00,VWS V13.01,2013-05-06 18:38:00,
2013-05-06 13:43:00,65.3,48.7,29.98,WNW,296,6.3,8.3,55,0.00,,,0.00,VWS V13.01,2013-05-06 18:43:00,
2013-05-06 13:48:00,66.0,47.9,29.98,North,354,4.9,6.3,52,0.00,,,0.00,VWS V13.01,2013-05-06 18:48:00,
2013-05-06 13:53:00,66.4,48.7,29.98,NNW,340,7.6,7.6,53,0.00,,,0.00,VWS V13.01,2013-05-06 18:53:00,
2013-05-06 13:58:00,66.7,49.6,29.98,WNW,286,5.4,5.8,54,0.00,,,0.00,VWS V13.01,2013-05-06 18:58:00,
2013-05-06 14:03:00,67.3,50.1,29.98,WSW,238,4.0,8.1,54,0.00,,,0.00,VWS V13.01,2013-05-06 19:03:00,
2013-05-06 14:08:00,67.1,49.4,29.98,WNW,290,3.1,3.1,53,0.00,,,0.00,VWS V13.01,2013-05-06 19:08:00,
2013-05-06 14:13:00,67.1,48.9,29.98,North,350,5.8,5.8,52,0.00,,,0.00,VWS V13.01,2013-05-06 19:13:00,
2013-05-06 14:18:00,66.9,49.2,29.98,West,264,3.6,8.3,53,0.00,,,0.00,VWS V13.01,2013-05-06 19:18:00,
2013-05-06 14:23:00,66.9,48.2,29.98,NNW,328,5.8,7.6,51,0.00,,,0.00,VWS V13.01,2013-05-06 19:23:00,
2013-05-06 14:28:00,67.1,48.4,29.98,WNW,299,3.1,4.9,51,0.00,,,0.00,VWS V13.01,2013-05-06 19:28:00,
2013-05-06 14:33:00,67.8,48.0,29.98,NE,39,4.0,5.8,49,0.00,,,0.00,VWS V13.01,2013-05-06 19:33:00,
2013-05-06 14:38:00,67.6,49.4,29.98,WNW,299,5.4,8.7,52,0.00,,,0.00,VWS V13.01,2013-05-06 19:38:00,
2013-05-06 14:43:00,67.1,48.4,29.98,NNW,336,3.6,8.1,51,0.00,,,0.00,VWS V13.01,2013-05-06 19:43:00,
2013-05-06 14:48:00,68.0,49.7,29.98,NE,51,7.6,8.3,52,0.00,,,0.00,VWS V13.01,2013-05-06 19:48:00,
2013-05-06 14:53:00,68.3,50.0,29.98,NW,326,2.2,3.1,52,0.00,,,0.00,VWS V13.01,2013-05-06 19:53:00,
2013-05-06 14:58:00,69.1,50.7,29.98,North,352,4.9,7.6,52,0.00,,,0.00,VWS V13.01,2013-05-06 19:58:00,
2013-05-06 15:03:00,69.2,50.4,29.98,NNE,29,4.0,4.9,51,0.00,,,0.00,VWS V13.01,2013-05-06 20:03:00,
2013-05-06 15:08:00,69.2,48.7,29.98,NW,304,5.8,8.7,48,0.00,,,0.00,VWS V13.01,2013-05-06 20:08:00,
2013-05-06 15:13:00,68.5,48.6,29.98,NW,320,6.3,8.7,49,0.00,,,0.00,VWS V13.01,2013-05-06 20:13:00,
2013-05-06 15:18:00,69.1,49.7,29.98,NW,317,3.1,3.6,50,0.00,,,0.00,VWS V13.01,2013-05-06 20:18:00,
2013-05-06 15:23:00,69.2,48.7,29.98,WNW,298,3.1,3.1,48,0.00,,,0.00,VWS V13.01,2013-05-06 20:23:00,
2013-05-06 15:28:00,68.9,49.0,29.95,WNW,300,7.6,7.6,49,0.00,,,0.00,VWS V13.01,2013-05-06 20:28:00,
2013-05-06 15:33:00,69.1,50.7,29.95,NW,317,5.4,5.4,52,0.00,,,0.00,VWS V13.01,2013-05-06 20:33:00,
2013-05-06 15:38:00,69.6,48.5,29.95,NE,51,8.3,8.3,47,0.00,,,0.00,VWS V13.01,2013-05-06 20:38:00,
2013-05-06 15:43:00,69.1,49.7,29.95,NNE,31,5.4,5.4,50,0.00,,,0.00,VWS V13.01,2013-05-06 20:43:00,
2013-05-06 15:48:00,69.2,48.2,29.95,NNW,344,4.0,7.6,47,0.00,,,0.00,VWS V13.01,2013-05-06 20:48:00,
2013-05-06 15:53:00,69.6,48.5,29.95,NNW,327,3.1,4.0,47,0.00,,,0.00,VWS V13.01,2013-05-06 20:53:00,
2013-05-06 15:58:00,69.2,48.7,29.95,NNE,21,6.3,6.3,48,0.00,,,0.00,VWS V13.01,2013-05-06 20:58:00,
2013-05-06 16:03:00,68.9,50.0,29.95,NNE,13,5.4,8.1,51,0.00,,,0.00,VWS V13.01,2013-05-06 21:03:00,
2013-05-06 16:08:00,69.4,49.5,29.95,NNW,346,0.0,5.4,49,0.00,,,0.00,VWS V13.01,2013-05-06 21:08:00,
2013-05-06 16:13:00,69.8,49.2,29.95,NNW,346,3.1,3.6,48,0.00,,,0.00,VWS V13.01,2013-05-06 21:13:00,
2013-05-06 16:18:00,68.9,47.8,29.95,NE,50,6.3,6.3,47,0.00,,,0.00,VWS V13.01,2013-05-06 21:18:00,
2013-05-06 16:23:00,68.7,48.2,29.95,NW,326,3.6,6.3,48,0.00,,,0.00,VWS V13.01,2013-05-06 21:23:00,
2013-05-06 16:28:00,68.3,47.9,29.95,North,11,3.6,5.4,48,0.00,,,0.00,VWS V13.01,2013-05-06 21:28:00,
2013-05-06 16:33:00,69.2,48.7,29.95,NW,325,0.0,3.6,48,0.00,,,0.00,VWS V13.01,2013-05-06 21:33:00,
2013-05-06 16:38:00,69.4,48.9,29.95,West,272,0.0,3.1,48,0.00,,,0.00,VWS V13.01,2013-05-06 21:38:00,
2013-05-06 16:43:00,69.6,47.9,29.95,NNE,26,4.9,5.4,46,0.00,,,0.00,VWS V13.01,2013-05-06 21:43:00,
2013-05-06 16:48:00,69.8,48.7,29.95,WSW,256,5.4,6.3,47,0.00,,,0.00,VWS V13.01,2013-05-06 21:48:00,
2013-05-06 16:53:00,70.1,50.7,29.95,NNW,347,5.4,5.8,50,0.00,,,0.00,VWS V13.01,2013-05-06 21:53:00,
2013-05-06 16:58:00,69.8,49.2,29.95,NW,305,2.7,4.9,48,0.00,,,0.00,VWS V13.01,2013-05-06 21:58:00,
2013-05-06 17:03:00,70.1,48.4,29.95,NW,316,3.6,5.8,46,0.00,,,0.00,VWS V13.01,2013-05-06 22:03:00,
2013-05-06 17:08:00,69.8,48.1,29.95,NNE,25,5.4,5.4,46,0.00,,,0.00,VWS V13.01,2013-05-06 22:08:00,
2013-05-06 17:13:00,69.8,48.1,29.95,NNE,19,3.1,4.5,46,0.00,,,0.00,VWS V13.01,2013-05-06 22:13:00,
2013-05-06 17:18:00,70.3,48.6,29.95,NW,321,2.7,4.0,46,0.00,,,0.00,VWS V13.01,2013-05-06 22:18:00,
2013-05-06 17:23:00,70.0,48.2,29.95,WSW,238,4.0,4.0,46,0.00,,,0.00,VWS V13.01,2013-05-06 22:23:00,
2013-05-06 17:28:00,69.6,47.9,29.95,NNW,335,4.9,6.3,46,0.00,,,0.00,VWS V13.01,2013-05-06 22:28:00,
2013-05-06 17:33:00,69.6,47.9,29.95,NW,308,3.1,3.1,46,0.00,,,0.00,VWS V13.01,2013-05-06 22:33:00,
2013-05-06 17:38:00,69.8,49.2,29.95,NW,310,4.0,4.0,48,0.00,,,0.00,VWS V13.01,2013-05-06 22:38:00,
2013-05-06 17:43:00,69.6,47.3,29.95,NW,311,2.7,4.0,45,0.00,,,0.00,VWS V13.01,2013-05-06 22:43:00,
2013-05-06 17:48:00,70.3,48.0,29.95,WNW,302,2.7,4.0,45,0.00,,,0.00,VWS V13.01,2013-05-06 22:48:00,
2013-05-06 17:53:00,70.3,48.0,29.95,WNW,288,3.1,4.0,45,0.00,,,0.00,VWS V13.01,2013-05-06 22:53:00,
2013-05-06 17:58:00,70.1,47.8,29.95,NW,308,8.3,8.3,45,0.00,,,0.00,VWS V13.01,2013-05-06 22:58:00,
2013-05-06 18:03:00,69.8,47.5,29.95,WSW,253,4.5,6.3,45,0.00,,,0.00,VWS V13.01,2013-05-06 23:03:00,
2013-05-06 18:08:00,69.1,46.8,29.95,WNW,299,4.9,5.4,45,0.00,,,0.00,VWS V13.01,2013-05-06 23:08:00,
2013-05-06 18:13:00,69.4,48.3,29.95,WSW,255,3.6,3.6,47,0.00,,,0.00,VWS V13.01,2013-05-06 23:13:00,
2013-05-06 18:18:00,69.8,48.1,29.95,NW,304,3.1,4.0,46,0.00,,,0.00,VWS V13.01,2013-05-06 23:18:00,
2013-05-06 18:23:00,69.6,47.3,29.95,NW,323,3.1,3.1,45,0.00,,,0.00,VWS V13.01,2013-05-06 23:23:00,
2013-05-06 18:28:00,68.9,47.8,29.95,West,281,5.4,5.4,47,0.00,,,0.00,VWS V13.01,2013-05-06 23:28:00,
2013-05-06 18:33:00,69.1,48.0,29.95,WNW,299,5.4,5.4,47,0.00,,,0.00,VWS V13.01,2013-05-06 23:33:00,
2013-05-06 18:38:00,69.2,48.7,29.95,WSW,256,3.6,5.4,48,0.00,,,0.00,VWS V13.01,2013-05-06 23:38:00,
2013-05-06 18:43:00,68.9,48.4,29.95,WSW,254,3.6,5.4,48,0.00,,,0.00,VWS V13.01,2013-05-06 23:43:00,
2013-05-06 18:47:00,68.7,47.7,29.95,WNW,300,4.9,4.9,47,0.00,,,0.00,VWS V13.01,2013-05-06 23:47:00,
2013-05-06 18:52:00,68.5,49.2,29.95,WSW,252,4.9,4.9,50,0.00,,,0.00,VWS V13.01,2013-05-06 23:52:00,
2013-05-06 18:57:00,68.2,47.8,29.95,West,268,4.0,5.4,48,0.00,,,0.00,VWS V13.01,2013-05-06 23:57:00,
2013-05-06 19:02:00,68.0,48.7,29.95,West,272,3.6,3.6,50,0.00,,,0.00,VWS V13.01,2013-05-07 00:02:00,
2013-05-06 19:07:00,68.2,49.4,29.95,WNW,288,3.6,3.6,51,0.00,,,0.00,VWS V13.01,2013-05-07 00:07:00,
2013-05-06 19:12:00,68.2,48.8,29.95,WSW,258,4.0,4.9,50,0.00,,,0.00,VWS V13.01,2013-05-07 00:12:00,
2013-05-06 19:17:00,68.0,48.1,29.95,West,259,3.6,4.0,49,0.00,,,0.00,VWS V13.01,2013-05-07 00:17:00,
2013-05-06 19:22:00,67.6,48.9,29.95,WNW,288,2.7,2.7,51,0.00,,,0.00,VWS V13.01,2013-05-07 00:22:00,
2013-05-06 19:27:00,67.3,49.0,29.95,NW,305,3.6,3.6,52,0.00,,,0.00,VWS V13.01,2013-05-07 00:27:00,
2013-05-06 19:32:00,66.9,48.7,29.95,NW,308,3.6,3.6,52,0.00,,,0.00,VWS V13.01,2013-05-07 00:32:00,
2013-05-06 19:37:00,66.5,48.4,29.95,WNW,294,4.0,4.0,52,0.00,,,0.00,VWS V13.01,2013-05-07 00:37:00,
2013-05-06 19:42:00,66.0,48.4,29.95,NW,305,3.1,5.8,53,0.00,,,0.00,VWS V13.01,2013-05-07 00:42:00,
2013-05-06 19:47:00,65.6,48.1,29.95,NW,308,2.7,4.0,53,0.00,,,0.00,VWS V13.01,2013-05-07 00:47:00,
2013-05-06 19:52:00,65.1,48.1,29.95,West,279,4.0,4.0,54,0.00,,,0.00,VWS V13.01,2013-05-07 00:52:00,
2013-05-06 19:57:00,64.7,47.7,29.95,WNW,295,3.6,4.0,54,0.00,,,0.00,VWS V13.01,2013-05-07 00:57:00,
2013-05-06 20:02:00,64.4,47.9,29.98,NW,319,3.1,3.6,55,0.00,,,0.00,VWS V13.01,2013-05-07 01:02:00,
2013-05-06 20:07:00,64.0,47.5,29.98,NW,306,3.6,4.0,55,0.00,,,0.00,VWS V13.01,2013-05-07 01:07:00,
2013-05-06 20:12:00,63.7,47.7,29.98,WNW,284,4.0,4.9,56,0.00,,,0.00,VWS V13.01,2013-05-07 01:12:00,
2013-05-06 20:17:00,63.3,47.3,29.98,WNW,292,5.4,5.8,56,0.00,,,0.00,VWS V13.01,2013-05-07 01:17:00,
2013-05-06 20:22:00,63.1,47.7,29.98,WNW,291,3.6,3.6,57,0.00,,,0.00,VWS V13.01,2013-05-07 01:22:00,
2013-05-06 20:27:00,62.8,47.3,29.98,NW,306,5.4,5.4,57,0.00,,,0.00,VWS V13.01,2013-05-07 01:27:00,
2013-05-06 20:32:00,62.8,47.3,29.98,WNW,292,5.8,5.8,57,0.00,,,0.00,VWS V13.01,2013-05-07 01:32:00,
2013-05-06 20:37:00,62.6,47.6,29.98,NW,312,2.7,2.7,58,0.00,,,0.00,VWS V13.01,2013-05-07 01:37:00,
2013-05-06 20:42:00,62.2,47.3,29.98,NW,309,2.7,3.1,58,0.00,,,0.00,VWS V13.01,2013-05-07 01:42:00,
2013-05-06 20:47:00,62.2,47.3,29.98,NW,310,2.7,2.7,58,0.00,,,0.00,VWS V13.01,2013-05-07 01:47:00,
2013-05-06 20:52:00,62.0,47.6,29.98,NW,309,3.6,4.0,59,0.00,,,0.00,VWS V13.01,2013-05-07 01:52:00,
2013-05-06 20:57:00,61.9,47.4,29.98,WNW,297,0.0,0.0,59,0.00,,,0.00,VWS V13.01,2013-05-07 01:57:00,
2013-05-06 21:02:00,61.5,47.1,29.98,WNW,293,4.0,4.0,59,0.00,,,0.00,VWS V13.01,2013-05-07 02:02:00,
2013-05-06 21:07:00,61.3,47.3,29.98,WNW,302,3.1,4.0,60,0.00,,,0.00,VWS V13.01,2013-05-07 02:07:00,
2013-05-06 21:12:00,61.1,47.2,29.98,WNW,292,2.7,2.7,60,0.00,,,0.00,VWS V13.01,2013-05-07 02:12:00,
2013-05-06 21:17:00,61.0,47.4,30.01,WNW,299,0.0,0.0,61,0.00,,,0.00,VWS V13.01,2013-05-07 02:17:00,
2013-05-06 21:22:00,60.6,47.1,30.01,WNW,299,0.0,0.0,61,0.00,,,0.00,VWS V13.01,2013-05-07 02:22:00,
2013-05-06 21:27:00,60.2,46.8,30.01,WNW,299,0.0,0.0,61,0.00,,,0.00,VWS V13.01,2013-05-07 02:27:00,
2013-05-06 21:32:00,59.7,47.1,30.01,SW,236,0.0,0.0,63,0.00,,,0.00,VWS V13.01,2013-05-07 02:32:00,
2013-05-06 21:37:00,59.0,46.8,30.01,SSW,195,0.0,0.0,64,0.00,,,0.00,VWS V13.01,2013-05-07 02:37:00,
2013-05-06 21:42:00,58.4,46.7,30.01,SSW,195,0.0,0.0,65,0.00,,,0.00,VWS V13.01,2013-05-07 02:42:00,
2013-05-06 21:47:00,58.1,46.4,30.01,SSW,195,0.0,0.0,65,0.00,,,0.00,VWS V13.01,2013-05-07 02:47:00,
2013-05-06 21:52:00,57.9,46.2,30.01,SSW,195,0.0,0.0,65,0.00,,,0.00,VWS V13.01,2013-05-07 02:52:00,
2013-05-06 21:57:00,57.7,46.8,30.01,SSW,195,0.0,0.0,67,0.00,,,0.00,VWS V13.01,2013-05-07 02:57:00,
2013-05-06 22:02:00,57.7,46.8,30.04,SSW,195,0.0,0.0,67,0.00,,,0.00,VWS V13.01,2013-05-07 03:02:00,
2013-05-06 22:07:00,57.7,47.2,30.04,West,278,2.2,3.6,68,0.00,,,0.00,VWS V13.01,2013-05-07 03:07:00,
2013-05-06 22:12:00,57.9,47.8,30.04,West,278,0.0,0.0,69,0.00,,,0.00,VWS V13.01,2013-05-07 03:12:00,
2013-05-06 22:17:00,58.1,48.0,30.01,West,278,0.0,0.0,69,0.00,,,0.00,VWS V13.01,2013-05-07 03:17:00,
2013-05-06 22:22:00,58.1,47.6,30.01,West,278,0.0,0.0,68,0.00,,,0.00,VWS V13.01,2013-05-07 03:22:00,
2013-05-06 22:27:00,58.1,47.6,30.01,South,180,0.0,0.0,68,0.00,,,0.00,VWS V13.01,2013-05-07 03:27:00,
2013-05-06 22:32:00,57.7,47.2,30.01,South,180,0.0,0.0,68,0.00,,,0.00,VWS V13.01,2013-05-07 03:32:00,
2013-05-06 22:37:00,57.5,47.5,30.01,South,180,0.0,0.0,69,0.00,,,0.00,VWS V13.01,2013-05-07 03:37:00,
2013-05-06 22:42:00,58.1,47.6,30.01,NNW,329,0.0,0.0,68,0.00,,,0.00,VWS V13.01,2013-05-07 03:42:00,
2013-05-06 22:47:00,58.3,47.8,30.01,WNW,290,2.7,2.7,68,0.00,,,0.00,VWS V13.01,2013-05-07 03:47:00,
2013-05-06 22:52:00,58.3,47.8,30.01,WNW,293,0.0,0.0,68,0.00,,,0.00,VWS V13.01,2013-05-07 03:52:00,
2013-05-06 22:57:00,58.4,47.5,30.01,WNW,282,0.0,0.0,67,0.00,,,0.00,VWS V13.01,2013-05-07 03:57:00,
2013-05-06 23:01:00,58.4,47.5,30.01,West,273,2.2,2.2,67,0.00,,,0.00,VWS V13.01,2013-05-07 04:01:00,
2013-05-06 23:06:00,58.4,47.5,30.01,West,264,0.0,0.0,67,0.00,,,0.00,VWS V13.01,2013-05-07 04:06:00,
2013-05-06 23:11:00,58.3,47.0,30.01,WSW,254,0.0,0.0,66,0.00,,,0.00,VWS V13.01,2013-05-07 04:11:00,
2013-05-06 23:16:00,57.9,47.0,30.01,WSW,237,0.0,0.0,67,0.00,,,0.00,VWS V13.01,2013-05-07 04:16:00,
2013-05-06 23:21:00,57.4,47.7,30.01,South,178,3.6,3.6,70,0.00,,,0.00,VWS V13.01,2013-05-07 04:21:00,
2013-05-06 23:26:00,57.0,46.9,30.01,South,177,2.7,2.7,69,0.00,,,0.00,VWS V13.01,2013-05-07 04:26:00,
2013-05-06 23:31:00,56.8,47.5,30.01,SSE,150,0.0,0.0,71,0.00,,,0.00,VWS V13.01,2013-05-07 04:31:00,
2013-05-06 23:36:00,56.6,47.4,30.01,SSE,150,0.0,0.0,71,0.00,,,0.00,VWS V13.01,2013-05-07 04:36:00,
2013-05-06 23:41:00,56.5,47.2,30.01,WSW,242,0.0,0.0,71,0.00,,,0.00,VWS V13.01,2013-05-07 04:41:00,
2013-05-06 23:46:00,56.3,47.0,30.01,WSW,242,0.0,0.0,71,0.00,,,0.00,VWS V13.01,2013-05-07 04:46:00,
2013-05-06 23:51:00,56.3,47.0,30.01,WSW,242,0.0,0.0,71,0.00,,,0.00,VWS V13.01,2013-05-07 04:51:00,
2013-05-06 23:56:00,56.5,47.2,30.01,WSW,242,0.0,0.0,71,0.00,,,0.00,VWS V13.01,2013-05-07 04:56:00,